Flag for USA Past Weather in Furnace Creek (Death Valley), California, USA — Yesterday and Last 2 Weeks

Now
99 °F

Mostly cloudy.


Feels Like: 97 °F
Forecast: 91 / 118 °F
Wind: 17 mph from Southwest

Location: Desert Rock Airport

Current Time: Jul 30, 2016 at 1:54:29 PM

Latest Report: Jul 30, 2016 at 12:53 PM


Visibility: 4 mi

Pressure: 29.74 "Hg

Humidity: 23%

Dew Point: 55 °F

Location of Furnace Creek (Death Valley)Location

Past Weather in Furnace Creek (Death Valley) — Graph

°F

Furnace Creek (Death Valley) Temperature Yesterday

Maximum temperature yesterday: 109 °F (at 1:53 PM)
Minimum temperature yesterday: 82 °F (at 6:53 AM)
Average temperature yesterday: 97 °F

High & Low Weather Summary for the Past Weeks

 TemperatureHumidityPressure
High111 °F (Jul 28, 3:53 PM)32% (Jul 30, 9:53 AM)29.96 "Hg (Jul 30, 9:53 AM)
Low71 °F (Jul 23, 4:53 AM)3% (Jul 16, 6:53 PM)29.63 "Hg (Jul 16, 5:53 PM)
Average92 °F13%29.78 "Hg
* Reported Jul 15 11:53 AM — Jul 30 11:53 AM, Furnace Creek (Death Valley), Weather by CustomWeather, © 2016

Note: Actual official high and low records may vary slightly from our data, if they occured in-between our weather recording intervals... More about our weather records

Advertising

Furnace Creek (Death Valley) Weather History for the Previous 24 Hours

Scroll right to see more
 ConditionsComfort  
Time TempWeatherWind HumidityBarometerVisibility
11:53 AM
Sat, Jul 30
97 °FOvercast.14 mph24%29.77 "Hg3 mi
10:53 AM95 °FMostly cloudy.18 mph28%29.78 "Hg3 mi
9:53 AM92 °FMostly cloudy.23 mph32%29.79 "Hg3 mi
8:53 AM89 °FOvercast.6 mph31%29.79 "Hg5 mi
8:03 AM88 °FOvercast.No wind29%29.96 "Hg6 mi
7:53 AM87 °FOvercast.No wind29%29.77 "Hg9 mi
6:53 AM81 °FPartly sunny.No wind29%29.75 "Hg10 mi
5:53 AM79 °FClear.3 mph30%29.72 "Hg10 mi
4:53 AM80 °FClear.No wind30%29.70 "Hg10 mi
3:53 AM81 °FClear.No wind27%29.68 "Hg10 mi
2:53 AM82 °FClear.5 mph27%29.69 "Hg10 mi
1:53 AM85 °FClear.No wind27%29.68 "Hg10 mi
12:53 AM88 °FClear.8 mph24%29.69 "Hg10 mi
11:53 PM
Fri, Jul 29
90 °FClear.14 mph23%29.70 "Hg10 mi
10:53 PM92 °FClear.13 mph21%29.70 "Hg10 mi
9:53 PM94 °FClear.15 mph19%29.71 "Hg10 mi
8:53 PM96 °FPassing clouds.8 mph18%29.76 "Hg10 mi
7:53 PM99 °FSunny.14 mph15%29.71 "Hg10 mi
7:03 PM101 °FPassing clouds.21 mph13%29.85 "Hg10 mi
6:53 PM101 °FBroken clouds.18 mph13%29.67 "Hg10 mi
5:53 PM106 °FSunny.22 mph11%29.63 "Hg10 mi
4:53 PM108 °FSunny.5 mph8%29.65 "Hg10 mi
3:53 PM109 °FSunny.10 mph9%29.64 "Hg10 mi
2:53 PM108 °FSunny.7 mph11%29.67 "Hg10 mi
1:53 PM109 °FSunny.15 mph12%29.70 "Hg10 mi
Weather by CustomWeather, © 2016

See weather overviewHow to use our weather pages